Weather History for Poughkeepsie, NY

Change the Weather History Date:

Friday, April 25, 2014

  Actual Average Record
Temperature  
Mean Temperature 49 °F 52 °F  
Max Temperature 67 °F 65 °F 90 °F (2009)
Min Temperature 31 °F 40 °F 23 °F (1956)
Degree Days  
Heating Degree Days 16 13  
Month to date heating degree days 395 433  
Since 1 July heating degree days 6125 5878  
Cooling Degree Days 0 0  
Month to date cooling degree days 6 0  
Year to date cooling degree days 6 0  
Moisture  
Dew Point 25 °F    
Average Humidity 43    
Maximum Humidity 76    
Minimum Humidity 19    
Precipitation  
Precipitation 0.05 in 0.12 in 1.27 in (1952)
Month to date precipitation 1.95 3.13  
Year to date precipitation 8.98 12.44  
Sea Level Pressure  
Sea Level Pressure 29.92 in    
Wind  
Wind Speed 3 mph (South)    
Max Wind Speed 12 mph    
Max Gust Speed 18 mph    
Visibility 10 miles    
Events Rain    
T = Trace of Precipitation, MM = Missing Value Source: NWS Daily Summary

Daily Weather History Graph

Daily Weather History Graph

Search for Another Location

Airport:

Trip Planner

Search our weather history database for the weather conditions in past years. The results will help you decide how hot, cold, wet, or windy it might be!

Date:

Astronomy

Apr. 25, 2014 Rise Set
Actual Time 6:00 AM EDT 7:47 PM EDT
Civil Twilight 5:30 AM EDT 8:16 PM EDT
Nautical Twilight 4:55 AM EDT 8:52 PM EDT
Astronomical Twilight 4:16 AM EDT 9:31 PM EDT
Moon 3:50 AM EDT (4/25) 4:03 PM EDT (4/25)
Length of Visible Light 14h 45m
Length of Day
13h 46m
Waning Crescent, 15% of the Moon is Illuminated
Apr 25
Waning Crescent
Apr 29
New
May 6
First Quarter
May 14
Full
May 21
Last Quarter

Hourly Weather History & Observations

Time (EDT) Temp. Windchill Dew Point Humidity Pressure Visibility Wind Dir Wind Speed Gust Speed Precip Events Conditions
12:53 AM 39.9 °F 37.8 °F 24.1 °F 53% 30.01 in 10.0 mi West 3.5 mph - N/A   Clear
1:53 AM 36.0 °F - 26.1 °F 67% 30.00 in 10.0 mi Calm Calm - N/A   Clear
2:53 AM 34.0 °F - 24.1 °F 67% 30.01 in 10.0 mi Calm Calm - N/A   Clear
3:53 AM 32.0 °F - 24.1 °F 73% 30.00 in 10.0 mi Calm Calm - N/A   Clear
4:53 AM 33.1 °F 30.0 °F 24.1 °F 70% 30.00 in 10.0 mi NNE 3.5 mph - N/A   Clear
5:53 AM 32.0 °F - 24.1 °F 73% 30.02 in 10.0 mi Calm Calm - N/A   Clear
6:53 AM 33.1 °F - 25.0 °F 72% 30.03 in 10.0 mi Calm Calm - N/A   Clear
7:53 AM 39.9 °F - 25.0 °F 55% 30.04 in 10.0 mi Calm Calm - N/A   Clear
8:53 AM 46.9 °F - 25.0 °F 42% 30.06 in 10.0 mi Calm Calm - N/A   Clear
9:53 AM 51.1 °F - 23.0 °F 33% 30.03 in 10.0 mi Calm Calm - N/A   Clear
10:53 AM 55.0 °F - 23.0 °F 29% 30.00 in 10.0 mi Calm Calm - N/A   Clear
11:53 AM 55.9 °F - 23.0 °F 28% 29.98 in 10.0 mi Calm Calm - N/A   Clear
12:53 PM 60.1 °F - 21.9 °F 23% 29.94 in 10.0 mi Variable 3.5 mph - N/A   Clear
1:53 PM 62.1 °F - 21.9 °F 21% 29.91 in 10.0 mi Calm Calm - N/A   Clear
2:53 PM 64.0 °F - 21.9 °F 20% 29.87 in 10.0 mi Variable 5.8 mph - N/A   Clear
3:53 PM 64.9 °F - 21.9 °F 19% 29.83 in 10.0 mi SE 9.2 mph - N/A   Clear
4:53 PM 64.9 °F - 23.0 °F 20% 29.79 in 10.0 mi SSE 8.1 mph - N/A   Clear
5:53 PM 62.1 °F - 25.0 °F 24% 29.79 in 10.0 mi South 11.5 mph 17.3 mph N/A   Clear
6:53 PM 60.1 °F - 24.1 °F 25% 29.78 in 10.0 mi SSE 9.2 mph 18.4 mph N/A   Clear
7:53 PM 57.0 °F - 24.1 °F 28% 29.81 in 10.0 mi South 9.2 mph - N/A   Clear
8:53 PM 55.0 °F - 21.9 °F 28% 29.83 in 10.0 mi South 8.1 mph - N/A   Overcast
9:53 PM 52.0 °F - 27.0 °F 38% 29.81 in 10.0 mi South 5.8 mph - 0.00 in Rain Light Rain
10:53 PM 50.0 °F - 30.0 °F 46% 29.80 in 10.0 mi SSW 4.6 mph - 0.00 in Rain Light Rain
11:53 PM 46.0 °F - 39.0 °F 76% 29.78 in 9.0 mi Calm Calm - 0.04 in Rain Light Rain